Location: Cier
(42.8575°N, 0.6010°E)
Time: 13:03:30
(UTC+00:00)

Daily predictions for brighter satellites

Satellite Brightness Start Highest point End
(mag) Time Altitude Azimuth Time Altitude Azimuth Time Altitude Azimuth
IRAS Rocket 4.4 19:37:22 10° SSE 19:42:44 61° ENE 19:48:09 10° N
SL-16 R/B 4.0 19:40:03 10° N 19:43:45 17° NE 19:47:26 10° E
SL-24 R/B 4.3 19:40:57 10° NNE 19:45:15 58° ESE 19:50:04 10° S
Okean 1 Rocket 3.1 19:42:13 10° S 19:46:36 86° W 19:51:04 10° N
Cosmos 2084 Rocket 4.1 19:47:31 10° NNW 19:51:32 41° NE 19:55:33 10° ESE
COSMOS 2406 4.1 19:51:13 10° SSE 19:56:04 29° ESE 20:00:55 10° NE
SL-4 R/B 4.4 19:55:10 10° W 19:57:07 14° SW 19:59:05 10° SSW
Cosmos 1782 2.9 19:54:39 10° SSE 19:57:58 42° E 20:01:19 10° NNE
Okean-O 3.9 19:55:09 10° ESE 19:58:40 24° ENE 20:02:11 10° NNE
CZ-4B R/B 4.0 19:54:45 10° S 19:58:46 80° WSW 20:02:49 10° NNW
CZ-4 R/B 1.1 19:55:13 10° SSE 19:58:50 86° WSW 20:02:28 10° NNW
MetOp-B 4.4 19:53:54 10° SSE 19:59:07 56° ENE 20:04:22 10° N
Cosmos 1980 Rocket 2.2 19:54:20 10° NNW 20:00:04 87° ENE 20:05:44 10° SSE
CSL-04 Rocket 4.2 19:58:25 10° S 20:03:51 63° WSW 20:09:15 10° NNW
ASTEX 1 3.9 19:59:55 10° S 20:04:49 65° W 20:09:46 10° NNW
Spot 2 Rocket 4.3 20:02:06 10° SE 20:06:32 36° ENE 20:11:07 10° N
Cosmos 1725 Rocket 4.0 20:01:32 10° S 20:07:46 75° E 20:13:59 10° N
Cosmos 2333 Rocket 3.7 20:07:17 10° N 20:11:51 24° NE 20:16:16 11° ESE
ERS-1 Rocket 3.0 20:07:26 10° SSE 20:12:27 86° ENE 20:17:30 10° NNW
ATLAS 3B R/B 3.6 20:05:32 10° NW 20:12:52 50° WSW 20:19:44 10° S
USA 305 3.1 20:15:08 10° WNW 20:19:07 50° SW 20:21:49 16° SSE
Tsikada Rocket 4.1 20:13:58 10° N 20:20:02 57° ENE 20:25:37 12° SSE
Cosmos 2016 Rocket 4.0 20:16:06 10° S 20:22:22 87° E 20:28:35 10° N
Cosmos 1461 3.0 20:20:32 10° S 20:23:59 39° ESE 20:27:27 10° NE
CZ-4B R/B 3.3 20:19:51 10° SSE 20:25:30 90° ENE 20:31:10 10° NNW
Cosmos 2360 Rocket 4.0 20:21:40 10° N 20:25:36 19° NE 20:29:32 10° E
CZ-4C R/B 4.2 20:24:18 10° W 20:27:58 26° NW 20:32:29 10° NNE
Cosmos 1992 Rocket 3.9 20:23:29 10° S 20:28:37 67° ESE 20:33:48 10° NNE
Meteor 2-12 Rocket 4.4 20:26:12 10° N 20:32:20 79° E 20:38:06 12° SSE
ISS -1.1 20:32:57 10° WNW 20:35:31 20° N 20:38:07 10° NE
YAOGAN 11 4.2 20:31:43 10° NNE 20:36:06 55° E 20:40:12 12° S
Cosmos 1437 Rocket 3.4 20:36:40 24° SE 20:37:51 31° E 20:41:02 10° NNE
Cosmos 2219 Rocket 4.2 20:35:32 10° N 20:38:51 16° NE 20:42:10 10° E
Gbstr 26 Del rocket 4.1 20:40:23 10° WNW 20:45:02 38° SW 20:47:30 20° S
DEBRIS 4.3 20:42:51 10° WNW 20:45:40 42° N 20:52:58 10° ENE
Cosmos 2098 Rocket 4.4 20:44:23 22° ESE 20:45:44 25° E 20:49:18 10° NE
SL-08 R/B 3.5 20:41:36 10° N 20:46:25 76° WNW 20:51:06 10° SSW
NOSS 3-3 (A) 4.2 20:42:02 10° SW 20:47:04 62° NW 20:53:04 10° NNE
Cosmos 1626 Rocket 3.7 20:44:23 10° N 20:48:42 58° E 20:51:00 26° SSE
Cosmos 1743 4.1 20:46:35 10° NNW 20:49:10 26° W 20:51:43 10° SSW
Terra 2.7 20:45:36 10° S 20:50:05 45° W 20:54:36 10° NNW
Delta 2 Rocket 4.3 20:51:50 10° SW 20:53:26 19° SSW 20:53:26 19° SSW
Cosmos 2151 3.2 20:52:40 10° N 20:56:41 49° E 20:58:09 32° SE
Cosmos 909 Rocket 4.5 20:51:03 10° SW 20:57:22 66° NW 21:03:46 10° NNE
Cosmos 2061 Rocket 4.1 20:51:13 10° S 20:57:26 80° W 21:03:46 10° N
Cosmos 2322 Rocket 3.3 20:52:45 10° N 20:57:50 32° NE 21:00:46 20° ESE
Cosmos 2082 Rocket 3.4 20:53:32 10° SW 20:58:58 44° WNW 21:04:25 10° NNE
Cosmos 2237 4.4 20:53:34 10° NNW 20:59:18 71° WSW 21:03:03 22° S
ADEOS 4.3 20:54:57 11° S 20:59:49 48° W 21:04:52 10° NNW
Cosmos 2369 4.2 20:59:39 10° NNW 21:05:13 55° WSW 21:09:06 20° S
Cosmos 1375 Rocket 4.5 20:58:56 10° SSW 21:05:24 84° ESE 21:12:00 10° NNE
CZ-4B R/B 2.6 21:09:42 48° ESE 21:10:14 55° ENE 21:13:36 10° N
Milstar 3 4.4 21:06:26 10° WSW 21:11:21 20° S 21:13:16 18° S
USA 186 2.1 21:11:04 39° SW 21:11:32 44° W 21:14:11 10° NNW
Cosmos 540 Rocket 4.5 21:13:16 26° ESE 21:13:27 26° E 21:17:41 10° NE
Okean O Rocket 2.1 21:11:15 22° SSW 21:13:46 52° W 21:17:59 10° NNW
DELTA 2 R/B (1) 3.6 21:16:29 10° W 21:21:58 61° S 21:24:09 35° ESE
Cosmos 1805 3.4 21:19:30 10° N 21:22:21 41° ENE 21:22:21 41° ENE
Cosmos 2278 3.8 21:18:21 10° NNW 21:24:05 69° ENE 21:26:23 37° SE
Cosmos 1544 Rocket 4.1 21:22:18 18° SSW 21:25:24 55° W 21:29:40 10° N
CZ-2C R/B 3.2 21:27:14 32° NNE 21:27:14 32° NNE 21:29:08 10° N
Meteor 1-5 Rocket 4.5 21:21:30 10° N 21:27:11 57° ENE 21:29:21 37° SE
SL-16 R/B 2.1 21:22:53 10° NNW 21:28:36 86° WSW 21:30:55 38° SSE
Okean 1-7 Rocket 3.9 21:25:28 10° N 21:29:50 49° E 21:30:35 44° ESE
NOSS 3-4 (A) 4.0 21:27:54 10° NNW 21:34:41 66° NE 21:38:38 31° SE
Okean-O 4.0 21:32:20 19° SSW 21:34:46 32° W 21:38:43 10° NNW
Cosmos 2034 Rocket 4.4 21:32:54 35° SE 21:34:54 46° E 21:40:54 10° NNE
NOSS 3-4 (C) 4.0 21:28:32 10° NNW 21:35:21 66° NE 21:39:18 31° ESE
Cosmos 1933 4.1 21:37:02 28° SW 21:38:39 46° WNW 21:42:20 10° N
Ariane Rocket 2.9 21:38:06 43° S 21:39:47 86° WSW 21:44:53 10° NNW
COSMOS 2406 4.4 21:34:39 10° SW 21:40:07 44° WNW 21:45:36 10° NNE
SPOT 3 Rocket 3.8 21:41:43 35° SSW 21:43:47 61° W 21:48:52 10° NNW
Nadezhda 4 Rocket 3.9 21:48:01 10° N 21:54:10 84° E 21:56:12 45° SSE
Cosmos 1763 Rocket 3.4 21:53:12 53° SSE 21:54:21 71° ESE 21:59:37 10° NNE
Helios 1B rocket 4.2 21:55:11 16° NE 21:55:11 16° NE 21:56:55 10° NNE
Okean 1 3.4 21:56:18 61° NNE 21:56:18 61° NNE 21:59:19 10° N
Cosmos 2333 Rocket 2.5 21:50:56 10° NNW 21:56:33 58° WSW 21:58:17 41° SSW
DNEPR-1 R/B 4.4 21:52:01 10° NW 21:57:46 83° WSW 21:59:54 46° SSE
Cosmos 1825 Rocket 3.3 21:54:40 10° N 21:59:03 85° E 21:59:17 79° SSE
Cosmos 1833 4.1 21:57:58 45° S 21:59:47 78° ESE 22:05:26 10° NNE
Cosmos 1536 4.5 21:57:03 10° NNE 21:59:12 21° NE 21:59:12 21° NE
Cosmos 1953 Rocket 3.8 22:00:51 10° N 22:04:56 55° ENE 22:04:56 55° ENE
Cosmos 990 Rocket 4.1 22:01:04 10° NNW 22:06:11 60° ENE 22:06:54 54° ESE
CZ-4B R/B 4.1 22:05:27 36° SW 22:06:38 43° W 22:11:14 10° NNW
Cosmos 2360 Rocket 2.1 22:04:34 10° NNW 22:10:15 79° WSW 22:11:23 58° S
USA 290 3.8 22:12:10 33° NW 22:12:10 33° NW 22:14:31 10° N
Cosmos 2195 Rocket 4.4 22:06:11 10° N 22:12:25 79° E 22:13:53 54° SSE
ISS -1.3 22:10:37 10° NW 22:13:10 20° N 22:14:19 17° NE
Cosmos 2058 Rocket 3.6 22:14:25 46° ENE 22:14:25 46° ENE 22:17:55 10° NNE
BREEZE-M DEB (TANK) 4.5 22:12:30 10° NW 22:13:12 14° NNW 22:13:12 14° NNW
Cosmos 2026 Rocket 4.0 22:10:26 10° N 22:16:50 72° E 22:18:17 54° SE
Cosmos 2333 4.1 22:12:15 10° NNW 22:18:00 82° WSW 22:19:00 62° S
Cosmos 1777 Rocket 4.3 22:15:30 10° NNW 22:20:35 54° WSW 22:21:18 50° SW
Helios 1A 3.5 22:19:33 10° NNE 22:22:30 49° NNE 22:22:30 49° NNE
Cosmos 2219 Rocket 2.1 22:17:58 10° NNW 22:23:41 84° ENE 22:24:29 67° SE
Cosmos 1076 Rocket 3.8 22:24:08 10° NNW 22:28:03 60° WNW 22:28:03 60° WNW
Cosmos 1503 Rocket 4.1 22:24:08 10° NNW 22:29:14 60° WSW 22:29:38 58° SW
ARIANE 5 R/B 4.0 22:32:16 29° ENE 22:32:16 29° ENE 22:35:55 10° N
RESURS DK-1 4.1 22:29:33 10° N 22:32:35 23° NE 22:32:35 23° NE
ALOS 2 4.2 22:33:58 25° ENE 22:33:58 25° ENE 22:37:22 10° NNE
Cosmos 2322 Rocket 2.9 22:36:40 10° NW 22:41:54 40° WSW 22:42:34 38° WSW
Cosmos 1354 Rocket 4.0 22:38:25 10° NNW 22:43:37 66° WSW 22:43:43 66° WSW
Cosmos 372 Rocket 4.1 22:42:50 10° NNW 22:47:52 61° ENE 22:47:52 61° ENE
Spot 4 4.4 22:51:57 47° ENE 22:51:57 47° ENE 22:56:19 10° N
Meteor 2-9 Rocket 4.4 22:50:30 10° N 22:55:48 54° ENE 22:55:55 54° E
CZ-2C R/B 4.3 22:58:57 20° E 23:00:00 21° ENE 23:03:48 10° NNE
Cosmos 2237 Rocket 3.8 22:55:41 10° N 23:00:22 25° NE 23:02:17 21° E
Aureole 1 Rocket 4.0 22:55:52 10° NNW 23:01:53 78° WSW 23:02:46 67° SSW
Cosmos 1092 Rocket 4.2 22:58:08 10° NNW 23:04:11 59° W 23:05:07 53° SW
Cosmos 2142 Rocket 4.5 23:05:17 64° ESE 23:05:43 66° E 23:11:53 10° NNE
ARGOS Delta rocket 4.3 23:01:48 10° NNE 23:06:31 58° ENE 23:06:31 58° ENE
Cosmos 2180 Rocket 4.5 23:06:37 63° ESE 23:07:01 64° E 23:13:16 10° NNE
Cosmos 1937 Rocket 3.9 23:04:29 10° N 23:09:26 50° ENE 23:09:26 50° ENE
Cosmos 2227 Rocket 4.2 23:11:04 15° E 23:11:04 15° E 23:13:15 10° ENE
Cosmos-2242 4.5 23:10:18 29° WNW 23:10:18 29° WNW 23:13:40 10° NNW
SL-16 R/B 4.5 23:09:57 10° WNW 23:11:44 11° W 23:12:46 11° WSW
COSMOS 2428 2.7 23:06:11 10° NNW 23:11:52 67° ENE 23:12:10 66° E
NOSS 0 Rocket 4.2 23:08:21 10° NNW 23:14:25 56° ENE 23:15:26 50° E
Meteor 1-11 Rocket 4.1 23:10:06 10° N 23:15:37 52° ENE 23:15:45 51° E
Meteor 1-10 Rocket 4.4 23:17:23 63° E 23:17:23 63° E 23:23:15 10° NNE
Cosmos 2263 Rocket 4.5 23:20:54 11° E 23:20:54 11° E 23:21:36 10° ENE
Cosmos 1812 Rocket 4.4 23:25:18 48° NNE 23:25:18 48° NNE 23:28:33 10° N
Helios 1B rocket 4.5 23:29:08 19° NW 23:29:08 19° NW 23:30:26 10° NW
Meteor 1-27 Rocket 4.1 23:32:34 54° E 23:32:34 54° E 23:38:01 10° NNE
USA 234 3.1 23:26:58 10° NE 23:33:34 80° SE 23:34:29 67° SSW
Cosmos 2221 3.6 23:35:23 41° NNW 23:35:23 41° NNW 23:38:22 10° N
CZ-2C R/B 3.5 23:30:17 10° NNE 23:35:48 57° E 23:35:48 57° E
ACS3 Solar Sail 3.3 23:32:38 10° NE 23:37:01 21° E 23:37:20 20° E
Cosmos 2279 Rocket 4.4 23:37:49 47° WSW 23:38:49 52° WNW 23:44:56 10° N
Meteor 1-14 Rocket 4.4 23:36:38 10° NNW 23:41:51 57° W 23:41:51 57° W
Cosmos 1898 Rocket 3.9 23:37:51 10° NNW 23:42:13 54° WNW 23:42:13 54° WNW
Cosmos 2297 Rocket 2.2 23:43:29 72° ENE 23:43:29 72° ENE 23:48:45 10° NNE
Meteor 2-20 4.3 23:46:32 82° SE 23:46:47 85° E 23:52:54 10° N
ISS -0.5 23:47:11 10° NW 23:47:15 10° NW 23:47:15 10° NW
